Showing default

CENTISPACE-1 S11, 62580

Orbit data source: Space-Track

CENTISPACE-1 S11, 62580 is a payload satellite owned by Centispace (CN) in LEO that was launched on Mon, 13 Jan 2025 UTC via a JIELONG-3 launch vehicle from the Yellow Sea Launch Area, China (YSLA). Payload-class satellites include a variety of spacecraft equipped with specific instruments for various scientific and technological missions. These include communications satellites like Starlink; space stations such as the ISS; scientific satellites like the Hubble; Earth observation satellites from companies like Planet Labs, Umbra, and HawkEye 360; GPS; miniature CubeSats for education and research; and military/defense satellites.

Loading next visibility...
Identifier
62580, 2025-007F
Orbit
LEO
Country
Flag of CNCN / PRC
Related business
Manufacturer
DFH Shenzhen
Mission
Operational Commercial Nav/Com
Bus & Motor
WK01, Unknown motor
Mass
140 kg wet, 140 kg dry
Launch date (UTC)
2025-01-13 (8 months ago)
Launch vehicle
JIELONG-3
Launch site
Yellow Sea Launch Area, China (YSLA)
Object type
Payload
Rocket body
Debris
Shape & HBR
Box + 2 Pan, 1.0 m
Radar Cross Section
0.833 m², Medium (>0.1 m² and < 1m²)

Expand to show TLE details & history
Last TLE update: 21 hours ago

TLE from 21 hours ago
0 CENTISPACE-1 S11
1 62580U 25007F   25257.56058321  .00000336  00000-0  13442-3 0  9995
2 62580  54.9767 217.3113 0072550 349.7665  10.1841 14.47544936 35963
Epoch: 2025-09-14T13:27Z
TLE epoch observation values (Epoch: 2025-09-14T13:27:14.389Z)
Latitude
-0.00001°
Longitude
21.72351°
Altitude
683.96 km
Speed
7.542 km/s
True Right ascension
14h 29m 14s
True Declination
0° 00' 00"
Sunlit
Object was in daylight at epoch
Visualization orbit readout
Latitude
Unknown
Longitude
Unknown
Altitude
Unknown
Speed
Unknown
Apparent Right ascension
Unknown
Apparent Declination
Unknown
Sunlit
N/A
Visualization observer readout
Local Sidereal Time
03:06:18
Azimuth
Unknown
Elevation
Unknown
Doppler factor
Unknown
Orbital elements
Apogee altitude
785.242 km
Perigee altitude
682.05 km
Semi-major axis
7,111.783 km
Eccentricity
0.00726
Inclination
54.9767°
RAAN
217.3113°
Arg. of periapsis
349.7665°
True anomaly
10.33242°
Mean anomaly
10.1841°
Eccentric anomaly
10.25813°
Mean motion
3.61889 °/min
Orbital period
99.48 mins
BSTAR
0.00013442
Loading maneuver chart data...
Computing Atmospheric mass density...
Loading historical data...
Loading historical data...
Loading historical data...
Loading historical data...
Loading historical data...
Loading historical data...
Loading historical data...

Documentation

Showing up to 5 results
|